Truth Or Consequences, NM

4:46 AM MDT on July 25, 2017 (GMT -0600)
Truth Or Consequences Municipal

Weather History for KTCS - June, 2013

Change the Weather History Date:

Sunday, June 23, 2013

  Actual Average Record
Temperature  
Mean Temperature 80 °F -  
Max Temperature 96 °F 94 °F 106 °F (2017)
Min Temperature 63 °F 64 °F 57 °F (2003)
Cooling Degree Days 15    
Month to date cooling degree days  
Year to date cooling degree days  
Since 1 June cooling degree days  
Growing Degree Days 30 (Base 50)    
Moisture  
Dew Point 15 °F    
Average Humidity 9    
Maximum Humidity 11    
Minimum Humidity 6    
Precipitation  
Precipitation 0.00 in - 0.11 in (2008)
Month to date precipitation T  
Year to date precipitation 0.28  
Sea Level Pressure  
Sea Level Pressure 29.71 in    
Wind  
Wind Speed 10 mph (WSW)    
Max Wind Speed 24 mph    
Max Gust Speed 31 mph    
Visibility 9 miles    
Events      
T = Trace of Precipitation, MM = Missing Value Source: NWS Daily Summary

Daily Weather History Graph

Daily Weather History Graph

Search for Another Location

Airport or City:

Trip Planner

Search our weather history database for the weather conditions in past years. The results will help you decide how hot, cold, wet, or windy it might be!

Date:

Astronomy

Jun. 23, 2013 Rise Set
Actual Time 6:00 AM MDT 8:21 PM MDT
Civil Twilight 5:31 AM MDT 8:50 PM MDT
Nautical Twilight 4:56 AM MDT 9:26 PM MDT
Astronomical Twilight 4:17 AM MDT 10:04 PM MDT
Moon 8:41 PM MDT (6/23) 6:18 AM MDT (6/23)
Length of Visible Light 15h 18m
Length of Day
14h 21m
Full, 100% of the Moon is Illuminated
Jun 23
Full
Jun 29
Last Quarter
Jul 8
New
Jul 15
First Quarter
Jul 22
Full

Hourly Weather History & Observations

Time (MDT) Temp. Dew Point Humidity Pressure Visibility Wind Dir Wind Speed Gust Speed Precip Events Conditions
12:53 AM 70.0 °F 3.0 °F 7% 29.70 in 10.0 mi West 9.2 mph - N/A   Clear
1:53 AM 73.9 °F 5.0 °F 7% 29.68 in 10.0 mi West 12.7 mph - N/A   Clear
2:53 AM 69.1 °F 6.1 °F 9% 29.70 in 10.0 mi WNW 10.4 mph - N/A   Clear
3:53 AM 66.0 °F 6.1 °F 9% 29.71 in 10.0 mi West 5.8 mph - N/A   Clear
4:53 AM 64.9 °F 7.0 °F 10% 29.73 in 10.0 mi West 10.4 mph - N/A   Clear
5:53 AM 64.9 °F 8.1 °F 11% 29.74 in 10.0 mi WNW 12.7 mph - N/A   Clear
6:53 AM 64.9 °F 9.0 °F 11% 29.77 in 10.0 mi East 3.5 mph - N/A   Clear
7:53 AM 72.0 °F 9.0 °F 9% 29.77 in 10.0 mi West 6.9 mph - N/A   Clear
8:53 AM 75.0 °F 12.9 °F 9% 29.77 in 10.0 mi ESE 4.6 mph - N/A   Mostly Cloudy
9:53 AM 79.0 °F 10.9 °F 8% 29.78 in 5.0 mi ESE 6.9 mph - N/A   Haze
10:53 AM 84.0 °F 15.1 °F 8% 29.75 in 10.0 mi South 10.4 mph - N/A   Partly Cloudy
11:53 AM 89.1 °F 19.0 °F 8% 29.72 in 10.0 mi SSW 10.4 mph - N/A   Clear
12:53 PM 91.9 °F 18.0 °F 7% 29.69 in 4.0 mi WSW 12.7 mph 27.6 mph N/A   Haze
1:03 PM 91.4 °F 17.6 °F 7% 29.97 in 3.0 mi SSW 13.8 mph 20.7 mph N/A   Haze
1:53 PM 91.9 °F 17.1 °F 6% 29.66 in 3.0 mi WSW 8.1 mph 19.6 mph N/A   Haze
2:32 PM 91.4 °F 15.8 °F 6% 29.93 in 4.0 mi Variable 3.5 mph 19.6 mph N/A   Haze
2:50 PM 93.2 °F 17.6 °F 6% 29.93 in 9.0 mi South 12.7 mph 27.6 mph N/A   Mostly Cloudy
2:53 PM 93.0 °F 17.1 °F 6% 29.64 in 10.0 mi SSW 9.2 mph 25.3 mph N/A   Scattered Clouds
3:53 PM 93.9 °F 17.1 °F 6% 29.63 in 7.0 mi SSW 13.8 mph 23.0 mph N/A   Partly Cloudy
4:53 PM 93.0 °F 15.1 °F 6% 29.62 in 10.0 mi SW 16.1 mph 23.0 mph N/A   Clear
5:53 PM 91.9 °F 18.0 °F 7% 29.61 in 10.0 mi WSW 15.0 mph 32.2 mph N/A   Clear
6:53 PM 91.0 °F 19.9 °F 7% 29.62 in 9.0 mi West 12.7 mph - N/A   Partly Cloudy
7:53 PM 89.1 °F 21.0 °F 8% 29.61 in 9.0 mi SW 13.8 mph 19.6 mph N/A   Mostly Cloudy
8:53 PM 86.0 °F 21.0 °F 9% 29.62 in 10.0 mi SW 9.2 mph - N/A   Clear
9:53 PM 81.0 °F 21.0 °F 11% 29.64 in 10.0 mi West 6.9 mph - N/A   Partly Cloudy
10:53 PM 79.0 °F 19.9 °F 11% 29.65 in 10.0 mi WNW 8.1 mph - N/A   Clear
11:53 PM 75.0 °F 19.0 °F 12% 29.66 in 10.0 mi West 8.1 mph - N/A   Mostly Cloudy